• In Czech Republic
  • List of Countries
  • For 7 days
  • Water Temperature
  • Satellite Maps
  • Weather Map
  • Weather Widgets
  • user-avatar
    Login

    Hourly Weather Salzburg

    Today, 27 June, Tuesday

    Time Temperature Precipitation Wind Pressure Humidity
    00:00 +10°C° 0.1 mm 2 mps 625 mmHg 90%
    01:00 +10°C° 0.1 mm 2 mps 625 mmHg 91%
    02:00 +10°C° 0.3 mm 2 mps 625 mmHg 92%
    03:00 +11°C° 0.3 mm 1 mps 625 mmHg 93%
    04:00 +11°C° 0.3 mm 1 mps 625 mmHg 94%
    05:00 +12°C° 0.4 mm 1 mps 625 mmHg 92%
    06:00 +13°C° 0.4 mm 1 mps 625 mmHg 90%
    07:00 +13°C° 0.4 mm 1 mps 626 mmHg 88%
    08:00 +15°C° 0.1 mm 1 mps 626 mmHg 81%
    09:00 +18°C° 0.1 mm 1 mps 627 mmHg 73%
    10:00 +20°C° 0.1 mm 1 mps 627 mmHg 66%
    11:00 +20°C° 0.8 mm 1 mps 627 mmHg 67%
    12:00 +20°C° 0.8 mm 1 mps 627 mmHg 68%
    13:00 +20°C° 0.8 mm 2 mps 627 mmHg 69%
    14:00 +20°C° 1.3 mm 1 mps 626 mmHg 72%
    15:00 +20°C° 1.3 mm 1 mps 626 mmHg 75%
    16:00 +20°C° 1.3 mm 1 mps 626 mmHg 78%
    17:00 +19°C° 0.8 mm 1 mps 625 mmHg 81%
    18:00 +18°C° 0.8 mm 1 mps 625 mmHg 85%
    19:00 +16°C° 0.8 mm 1 mps 624 mmHg 89%
    20:00 +15°C° 0.2 mm 1 mps 624 mmHg 90%
    21:00 +13°C° 0.2 mm 2 mps 623 mmHg 92%
    22:00 +12°C° 0.2 mm 2 mps 623 mmHg 93%
    23:00 +10°C° 0 mm 2 mps 623 mmHg 93%

    Tomorrow, 28 June, Wednesday

    Time Temperature Precipitation Wind Pressure Humidity
    00:00 +10°C° 0 mm 2 mps 622 mmHg 93%
    01:00 +10°C° 0 mm 2 mps 622 mmHg 93%
    02:00 +10°C° 0 mm 2 mps 621 mmHg 92%
    03:00 +9°C° 0 mm 2 mps 621 mmHg 92%
    04:00 +9°C° 0 mm 2 mps 621 mmHg 92%
    05:00 +12°C° 0 mm 2 mps 621 mmHg 90%
    06:00 +13°C° 0 mm 2 mps 621 mmHg 88%
    07:00 +14°C° 0 mm 2 mps 621 mmHg 86%
    08:00 +16°C° 0 mm 2 mps 622 mmHg 76%
    09:00 +18°C° 0 mm 2 mps 622 mmHg 67%
    10:00 +20°C° 0 mm 2 mps 623 mmHg 58%
    11:00 +21°C° 0.3 mm 3 mps 622 mmHg 57%
    12:00 +21°C° 0.3 mm 3 mps 622 mmHg 55%
    13:00 +22°C° 0.3 mm 3 mps 622 mmHg 54%
    14:00 +20°C° 1.1 mm 3 mps 622 mmHg 62%
    15:00 +19°C° 1.1 mm 3 mps 621 mmHg 70%
    16:00 +18°C° 1.1 mm 3 mps 620 mmHg 78%
    17:00 +16°C° 2.1 mm 2 mps 620 mmHg 84%
    18:00 +15°C° 2.1 mm 2 mps 619 mmHg 90%
    19:00 +13°C° 2.1 mm 1 mps 618 mmHg 96%
    20:00 +13°C° 1.6 mm 1 mps 618 mmHg 96%
    21:00 +12°C° 1.6 mm 2 mps 617 mmHg 96%
    22:00 +12°C° 1.6 mm 2 mps 617 mmHg 97%
    23:00 +10°C° 0.1 mm 2 mps 616 mmHg 97%

    Day after tomorrow, 29 June, Thursday

    Time Temperature Precipitation Wind Pressure Humidity
    00:00 +10°C° 0.1 mm 2 mps 616 mmHg 97%
    01:00 +9°C° 0.1 mm 2 mps 615 mmHg 97%
    02:00 +9°C° 0.5 mm 2 mps 615 mmHg 97%
    03:00 +9°C° 0.5 mm 2 mps 615 mmHg 97%
    04:00 +8°C° 0.5 mm 2 mps 614 mmHg 97%
    05:00 +9°C° 0.5 mm 2 mps 615 mmHg 96%
    06:00 +9°C° 0.5 mm 2 mps 615 mmHg 95%
    07:00 +10°C° 0.5 mm 2 mps 616 mmHg 94%
    08:00 +10°C° 0.5 mm 2 mps 616 mmHg 91%
    09:00 +12°C° 0.5 mm 2 mps 617 mmHg 88%
    10:00 +11°C° 0.5 mm 3 mps 617 mmHg 85%
    11:00 +12°C° 1.1 mm 2 mps 618 mmHg 85%
    12:00 +12°C° 1.1 mm 2 mps 618 mmHg 85%
    13:00 +12°C° 1.1 mm 2 mps 618 mmHg 86%
    14:00 +12°C° 1.1 mm 2 mps 618 mmHg 87%
    15:00 +10°C° 1.1 mm 2 mps 618 mmHg 89%
    16:00 +10°C° 1.1 mm 2 mps 619 mmHg 91%
    17:00 +9°C° 2 mm 2 mps 619 mmHg 93%
    18:00 +9°C° 2 mm 2 mps 619 mmHg 95%
    19:00 +8°C° 2 mm 2 mps 619 mmHg 96%
    20:00 +8°C° 1.1 mm 1 mps 619 mmHg 96%
    21:00 +7°C° 1.1 mm 1 mps 620 mmHg 96%
    22:00 +7°C° 1.1 mm 1 mps 620 mmHg 96%
    23:00 +7°C° 0.2 mm 1 mps 620 mmHg 95%

    30 June, Friday

    Time Temperature Precipitation Wind Pressure Humidity
    00:00 +6°C° 0.2 mm 1 mps 620 mmHg 94%
    01:00 +6°C° 0.2 mm 1 mps 620 mmHg 93%
    02:00 +6°C° 0.2 mm 1 mps 620 mmHg 92%
    03:00 +6°C° 0.2 mm 1 mps 620 mmHg 91%
    04:00 +5°C° 0.2 mm 1 mps 620 mmHg 90%
    05:00 +7°C° 0.1 mm 1 mps 621 mmHg 88%
    06:00 +8°C° 0.1 mm 1 mps 622 mmHg 86%
    07:00 +9°C° 0.1 mm 1 mps 622 mmHg 84%
    08:00 +9°C° 0.2 mm 2 mps 623 mmHg 78%
    09:00 +12°C° 0.2 mm 2 mps 623 mmHg 71%
    10:00 +13°C° 0.2 mm 2 mps 624 mmHg 65%
    11:00 +14°C° 0.4 mm 2 mps 624 mmHg 63%
    12:00 +14°C° 0.4 mm 2 mps 624 mmHg 62%
    13:00 +15°C° 0.4 mm 2 mps 625 mmHg 60%
    14:00 +14°C° 0.7 mm 3 mps 624 mmHg 63%
    15:00 +13°C° 0.7 mm 3 mps 624 mmHg 66%
    16:00 +13°C° 0.7 mm 3 mps 624 mmHg 68%
    17:00 +13°C° 0.7 mm 2 mps 624 mmHg 75%
    18:00 +12°C° 0.7 mm 2 mps 624 mmHg 81%
    19:00 +10°C° 0.7 mm 2 mps 624 mmHg 87%
    20:00 +9°C° 0.7 mm 1 mps 623 mmHg 90%
    21:00 +8°C° 0.7 mm 1 mps 623 mmHg 92%
    22:00 +6°C° 0.7 mm 1 mps 623 mmHg 95%
    23:00 +6°C° 0.3 mm 1 mps 623 mmHg 94%

    1 July, Saturday

    Time Temperature Precipitation Wind Pressure Humidity
    00:00 +6°C° 0.3 mm 1 mps 623 mmHg 94%
    01:00 +6°C° 0.3 mm 1 mps 623 mmHg 93%
    02:00 +6°C° 0.4 mm 1 mps 623 mmHg 93%
    03:00 +5°C° 0.4 mm 1 mps 622 mmHg 92%
    04:00 +5°C° 0.4 mm 1 mps 622 mmHg 92%
    05:00 +7°C° 0.1 mm 1 mps 623 mmHg 88%
    06:00 +8°C° 0.1 mm 1 mps 623 mmHg 83%
    07:00 +9°C° 0.1 mm 0 mps 624 mmHg 79%
    08:00 +11°C° 0.1 mm 1 mps 625 mmHg 74%
    09:00 +12°C° 0.1 mm 1 mps 625 mmHg 68%
    10:00 +13°C° 0.1 mm 1 mps 626 mmHg 62%
    11:00 +14°C° 0.3 mm 1 mps 626 mmHg 63%
    12:00 +15°C° 0.3 mm 1 mps 626 mmHg 63%
    13:00 +15°C° 0.3 mm 1 mps 626 mmHg 64%
    14:00 +15°C° 0.9 mm 2 mps 626 mmHg 69%
    15:00 +14°C° 0.9 mm 2 mps 626 mmHg 74%
    16:00 +13°C° 0.9 mm 2 mps 626 mmHg 79%
    17:00 +12°C° 1.3 mm 2 mps 626 mmHg 84%
    18:00 +10°C° 1.3 mm 2 mps 626 mmHg 90%
    19:00 +8°C° 1.3 mm 2 mps 626 mmHg 95%
    20:00 +8°C° 1.3 mm 2 mps 626 mmHg 96%
    21:00 +7°C° 1.3 mm 2 mps 627 mmHg 97%
    22:00 +7°C° 1.3 mm 2 mps 627 mmHg 98%
    23:00 +6°C° 0.4 mm 2 mps 627 mmHg 98%

    2 July, Sunday

    Time Temperature Precipitation Wind Pressure Humidity
    00:00 +6°C° 0.4 mm 2 mps 627 mmHg 98%
    01:00 +6°C° 0.4 mm 2 mps 627 mmHg 98%
    02:00 +6°C° 0.2 mm 2 mps 627 mmHg 98%
    03:00 +6°C° 0.2 mm 1 mps 627 mmHg 98%
    04:00 +6°C° 0.2 mm 1 mps 627 mmHg 98%
    05:00 +7°C° 0 mm 1 mps 628 mmHg 96%
    06:00 +7°C° 0 mm 1 mps 628 mmHg 95%
    07:00 +8°C° 0 mm 1 mps 628 mmHg 93%
    08:00 +8°C° 0 mm 2 mps 629 mmHg 85%
    09:00 +9°C° 0 mm 2 mps 629 mmHg 76%
    10:00 +12°C° 0 mm 2 mps 629 mmHg 68%
    11:00 +13°C° 0 mm 2 mps 630 mmHg 63%
    12:00 +14°C° 0 mm 2 mps 630 mmHg 58%
    13:00 +15°C° 0 mm 2 mps 630 mmHg 53%
    14:00 +15°C° 0 mm 2 mps 630 mmHg 58%
    15:00 +14°C° 0 mm 2 mps 630 mmHg 63%
    16:00 +13°C° 0 mm 2 mps 629 mmHg 69%
    17:00 +12°C° 0.1 mm 1 mps 629 mmHg 75%
    18:00 +11°C° 0.1 mm 1 mps 629 mmHg 81%
    19:00 +11°C° 0.1 mm 1 mps 628 mmHg 87%
    20:00 +10°C° 0.1 mm 1 mps 628 mmHg 89%
    21:00 +9°C° 0.1 mm 1 mps 628 mmHg 90%
    22:00 +9°C° 0.1 mm 1 mps 628 mmHg 92%
    23:00 +8°C° 0.4 mm 1 mps 628 mmHg 92%
    Show more